Tracking 30505 objects as of 23-May-2025
HD Live streaming from Space Station
objects crossing your sky now

SZ-20

Track SZ-20 now!
10-day predictions


NORAD ID: 63632
Int'l Code: 2025-082A
Perigee: 384.3 km
Apogee: 392.0 km
Inclination: 41.5 °
Period: 92.2 minutes
Semi major axis: 6759 km
RCS: Unknown
Launch date: April 24, 2025
Source: People's Republic of China (PRC)
Launch site: Jiuquan Satellite Launch Center, China (JSC)
Your satellite tracking list
Your tracking list is empty




NASA's NSSDC Master Catalog

Two Line Element Set (TLE):
1 63632U 25082A   25142.18705856  .00023569  00000-0  26205-3 0  9994
2 63632  41.4637 178.5073 0005662 313.7184  46.3186 15.62307660232049
Source of the keplerian elements: AFSPC